Other Public Products
Issued by NWS Grand Forks, ND

Home | Current Version | Previous Version | Text Only | Print | Product List | Glossary On
Versions: 1 2 3 4 5 6 7 8 9 10 11 12 13 14 15 16 17 18 19 20 21 22 23 24 25 26 27 28 29 30 31 32 33 34 35 36 37 38 39 40 41 42 43 44 45 46 47 48 49 50
000
FPUS83 KFGF 310710
OPUFGF
PRAIRIE TO PINES WEATHER ROUNDUP
NATIONAL WEATHER SERVICE EASTERN NORTH DAKOTA/GRAND FORKS ND
100 AM CST SAT JAN 31 2015

 **SATELLITE DATA USED TO AUGMENT SKY COVER AT AUTOMATED STATIONS**
 *****  WEATHER ACROSS EASTERN NORTH DAKOTA  *****

CITY           SKY/WX    TMP DP  RH WIND       PRES   REMARKS
GRAND FORKS    CLOUDY    17  12  80 N21       30.25R WCI   0
GRAND FORKS AF FLURRIES  16  10  79 N17G23    30.25R WCI   0
GRAND CITY NWS   N/A     16 N/A N/A N23         N/A  WCI  -2
BUXTON         NOT AVBL
DEVILS LAKE    CLOUDY    18  10  73 N15G21    30.23R WCI   3
FARGO          CLOUDY    24  17  74 N20G26    30.19R WCI  10
WAHPETON ARPT  CLOUDY    27  23  86 N13       30.16S WCI  16
$$

 *****  WEATHER ACROSS CENTRAL AND WESTERN NORTH DAKOTA  *****

CITY           SKY/WX    TMP DP  RH WIND       PRES   REMARKS
JAMESTOWN      CLOUDY    24  20  84 N16       30.18S WCI  11
BISMARCK       CLOUDY    24  22  91 NE10      30.20R WCI  14
MINOT          CLOUDY    20  15  81 N9        30.22S WCI   9
MINOT AFB      CLOUDY    20  19  98 NE12      30.23S WCI   7
GARRISON         N/A     23  20  88 NE9       30.19R WCI  13
WILLISTON      CLOUDY    22  19  89 NE14      30.20S WCI   9
DICKINSON      MOCLDY    26  22  84 NE10      30.11F WCI  16
HETTINGER      CLEAR     24  20  84 CALM      30.11F
$$

 *****  OTHER OBSERVATIONS NORTHEAST NORTH DAKOTA  *****

CITY           SKY/WX    TMP DP  RH WIND       PRES   REMARKS
WALHALLA       FLURRIES  12  12 100 N17       30.31R WCI  -5
LANGDON        NOT AVBL
CAVALIER       LGT SNOW  14   9  79 N20G26    30.29R WCI  -3
GRAFTON        NOT AVBL
CANDO          CLOUDY    14   9  79 NE16G22   30.25S WCI  -2
FORT TOTTEN      N/A     18  13  80 N7        29.95S WCI   9
ROLLA          FLURRIES  10   9  92 NE20      30.23F WCI  -8
RUGBY          PTSUNNY   18  16  93 E15       30.22F WCI   3
 ***** THE ABOVE OBSERVATIONS ARE NON NWS ARE NOT QUALITY
        CONTROLLED AND MAY MIS-REPORT RAIN FOR SNOW...
$$

 *****  OTHER OBSERVATIONS SOUTHEAST NORTH DAKOTA *****

CITY           SKY/WX    TMP DP  RH WIND       PRES   REMARKS
COOPERSTOWN    NOT AVBL
VALLEY CITY    MIX PCPN  23  23 100 N17       30.18F WCI   9
OAKES            N/A     25  25 100 N14G20    30.17S WCI  13
GWINNER        CLOUDY    28  28 100 N16       30.18S WCI  17
SHEYENNE NWR     N/A     25  21  84 N10       29.95  WCI  15
BUFFALO        NOT AVBL
WYNDMERE         N/A     27  25  93 N12         N/A  WCI  16
 ***** THE ABOVE OBSERVATIONS ARE NON NWS ARE NOT QUALITY
       CONTROLLED AND MAY MIS-REPORT RAIN FOR SNOW...
$$

  *****  WEATHER ACROSS NORTHERN MINNESOTA  *****

CITY           SKY/WX    TMP DP  RH WIND       PRES   REMARKS
FLAG ISLAND    MIX PCPN  12   9  85 NW17      30.17S WCI  -5
WARROAD        FLURRIES  16  10  79 NW12      30.19S WCI   3
ROSEAU         CLOUDY    16  10  79 N17       30.20R WCI   0
HALLOCK        FLURRIES  16   9  73 N22G29    30.25S WCI  -2
THF RVR FALLS  CLOUDY    19  18  93 N15       30.18S WCI   5
HALSTAD          N/A     19  14  80 N21         N/A  WCI   3
FOSSTON        CLOUDY    19  16  86 NW14      30.15S WCI   6
BAUDETTE       CLOUDY    15  11  83 NW17      30.14R WCI  -1
WASKISH        CLOUDY    19  16  86 NW9       30.13S WCI   9
CROOKSTON      CLOUDY    18  16  93 N21G29    30.23R WCI   1
$$
  *****  WEATHER ACROSS CENTRAL AND WEST MINNESOTA  *****

CITY           SKY/WX    TMP DP  RH WIND       PRES   REMARKS
BEMIDJI        CLOUDY    23  20  87 NW14      30.10S WCI  11
PARK RAPIDS    CLOUDY    22  19  89 NW8       30.08S WCI  12
WADENA         CLEAR     18  18 100 NW5       30.09S WCI  11
DETROIT LAKES  CLOUDY    23  23 100 N15G21    30.13S WCI  10
MOORHEAD       CLOUDY    23  21  93 N16       30.19R WCI  10
FERGUS FALLS   CLOUDY    25  21  86 N12G17    30.16F WCI  14
ELBOW LAKE     FAIR      22  20  93 NW7       30.12S WCI  13
MORRIS MN      CLEAR     25  21  86 NW14      30.12S WCI  13
STAPLES        MOCLDY    14  12  92 CALM      30.09F
WHEATON        MOCLDY    23  21  93 NW9       30.17F WCI  13
$$
  *****  WEATHER ELSEWHERE ACROSS MINNESOTA  *****

CITY           SKY/WX    TMP DP  RH WIND       PRES   REMARKS
DULUTH         CLOUDY    19  10  68 W7        30.06F WCI  10
INTRNTL FALLS  CLOUDY    16  11  80 NW10      30.11R WCI   4
ELY            CLOUDY    14  10  85 CALM      30.06F
CLOQUET        CLOUDY    19  12  73 CALM      30.08F
BRAINERD       CLOUDY    24  19  81 CALM      30.09F
HIBBING        CLOUDY    18   8  65 CALM      30.07F
ALEXANDRIA     CLEAR     23  21  92 NW7       30.10S WCI  15
SAINT CLOUD    CLEAR     18  16  92 CALM      30.11R
MINNEAPOLIS    PTCLDY    21  17  84 SE3       30.13F
$$

  *****  WEATHER ACROSS SOUTH DAKOTA  *****

CITY           SKY/WX    TMP DP  RH WIND       PRES   REMARKS
SIOUX FALLS    CLEAR     30  25  81 S3        30.11F
BROOKINGS      NOT AVBL
WATERTOWN      CLEAR     22  20  92 N5        30.10S FOG     WCI  16
HURON          CLEAR     26  23  88 N8        30.12S WCI  18
SISSETON         N/A     27  25  92 N14       30.15S WCI  16
ABERDEEN       CLOUDY    27  24  89 N14       30.17R FOG     WCI  16
MITCHELL       PTCLDY    27  25  92 W5        30.12S WCI  22
PIERRE         PTCLDY    24  20  84 N8        30.11S WCI  15
MOBRIDGE       CLOUDY    29  26  89 NE7       30.13R FOG     WCI  22
RAPID CITY     CLOUDY    30  23  75 N8        30.09F WCI  22
$$

  *****  SOME WEATHER IN NEARBY STATES *****

CITY           SKY/WX    TMP DP  RH WIND       PRES   REMARKS
GLASGOW MT     MOCLDY    28  25  88 E20       30.10R WCI  15
GREAT FALLS MT MOCLDY    33  19  56 SW14      29.97F WCI  23
CHEYENNE WY    CLOUDY    32  23  69 NW6       30.03S
SCOTTSBLUFF NE CLOUDY    35  27  72 N5        30.03F
OMAHA NE       CLOUDY    33  25  72 SE8       30.23F
DES MOINES IA  PTCLDY    27  18  69 S7        30.25F WCI  19
DAVENPORT IA   CLOUDY    26  17  68 SW8       30.32F WCI  18
CHICAGO IL     CLOUDY    21  14  74 S6        30.31F WCI  13
EAU CLAIRE WI  CLOUDY    20   9  62 CALM      30.15F
LA CROSSE WI   CLEAR     24  13  62 S12       30.20F WCI  13
$$

  *****  SOME NATIONAL WEATHER *****

CITY           SKY/WX    TMP DP  RH WIND       PRES   REMARKS
LA GUARDIA NY  PTCLDY    18   5  57 NW30G46   30.03R WCI  -1
RALEIGH NC     PTCLDY    26   8  46 CALM      30.31R
ATLANTA GA     PTCLDY    34  20  56 NW8       30.32S
NEW ORLEANS LA PTCLDY    50  36  58 E7        30.31F
OKLAHOMA CITY  CLOUDY    44  26  49 SE10      30.24F
ALBUQUERQUE NM CLOUDY    36  32  85 VRB5      30.02F
SALT LAKE CITY CLOUDY    41  36  82 W8        29.97S
LOS ANGELES CA MOCLDY    59  57  93 CALM      29.86F
BOISE ID       CLEAR     29  25  85 CALM      30.16S
SEATTLE WA     FOG       39  38  96 W3        30.25S VSB 1/8
$$

*** WEATHER ACROSS MANITOBA...SASKATCHEWAN AND ONTARIO ***
                ***ONTARIO***

CITY           SKY/WX    TMP DP  RH WIND       PRES   REMARKS
GERALDTON      FLURRIES   1  -2  85 SE2       30.01F
THUNDER BAY    FLURRIES   9   7  92 W3        30.10F
SIOUX LOOKOUT  FLURRIES   9   5  85 NW8       30.06S WCI  -4
TORONTO        MOCLDY     1  -4  78 W3        30.35F
BIG TROUT LK   CLEAR    -17 -24  70 N10G18    30.15R WCI -37
PICKLE LAKE    NOT AVBL
DRYDEN         FLURRIES   9   7  92 W9        30.08R WCI  -5
KENORA         FLURRIES  10   7  85 N13       30.14R WCI  -5
$$
                *** MANITOBA***

CITY           SKY/WX    TMP DP  RH WIND       PRES   REMARKS
BRANDON        MOCLDY     3  -4  72 N5        30.34R WCI  -6
DAUPHIN        CLEAR      1  -4  78 N7        30.44R WCI -11
ISLAND LAKE    CLEAR    -18 -26  69 N13G20    30.33R WCI -41
PILOT MOUND      N/A      5   1  85 N15         N/A  WCI -13
THE PAS        PTCLDY   -17 -22  76 N8        30.54R WCI -34
THOMPSON       CRYSTALS -24 -33  62 NW10      30.45R WCI -46
WINNIPEG       PTCLDY     5   0  78 N15       30.33S WCI -13
LYNN LAKE      CLEAR    -26 -35  62 NW10G18   30.48R WCI -48
CHURCHILL      BLWGSNOW -24 -31  69 NW30G38   30.27R VSB 1/4 WCI -58
GILLAM         CLEAR    -27 -36  62 NW14G21   30.34R WCI -54
$$
                ***SASKATCHEWAN***

CITY           SKY/WX    TMP DP  RH WIND       PRES   REMARKS
ESTEVAN        LGT SNOW  18  16  93 E10       30.25R VSB 3/4 WCI   6
KINDERSLEY     LGT SNOW  12   7  79 NE24      30.29R DRFTSNOWWCI  -8
LLOYDMINSTER   PTCLDY     3  -2  78 NE14G22   30.41R WCI -15
PRINCE ALBERT  PTCLDY    -4  -9  77 N12       30.52R WCI -22
REGINA         LGT SNOW  10   7  85 NE16      30.31R FOG     WCI  -7



USA.gov is the U.S. government's official web portal to all federal, state and local government web resources and services.